Weather in Reims

France     49°15′40″N   4°01′53″E
temp.,
°C
wind,
m/s
gust,
m/s
humid.,
%
clouds,
%
prec.,
mm/h
press.,
hPa
HPBL,
m
28 september, tue
tue2823:00+11sw2283100 0.0 102311
02:00+12s2281100 0.0 102423
05:00+10sse1183100 0.0 102410
08:00+10se2393100 0.0 102367
11:00+13sse3576100 0.0 1023372
14:00+18s4554100 0.0 10221097
17:00+17s3555100 0.0 10201378
20:00+13sse227275 0.0 102026
29 september, wed
wed2923:00+12s2275100 0.0 102020
02:00+11s397541 0.0 1019179
05:00+13ssw61366100 0.0 1018573
08:00+12sw7148480 1.0 1018789
11:00+13w710700 0.8 10211029
14:00+15w79481 0.8 10221636
17:00+15wnw79466 0.0 10242158
20:00+10wnw410600 0.0 1026290
30 september, thu
thu3023:00+8wsw38715 0.0 1029200
02:00+6wsw33785 0.0 102962
05:00+6wsw2280100 0.0 102917
08:00+5ssw2282100 0.0 103012
11:00+11sw346194 0.0 1030501
14:00+15sw454321 0.0 10281292
17:00+15sw453974 0.0 10251345
20:00+11s335297 0.0 102531
1 october, fri
fri123:00+10s3553100 0.0 102573
02:00+9s395975 0.0 1023144
05:00+9s41162100 0.0 1022214
08:00+8s4126184 0.0 1021256
11:00+13ssw61255100 0.0 1020512
14:00+17ssw71044100 0.0 1018975
17:00+18ssw61147100 0.0 10151124
20:00+16ssw61454100 0.0 1015627
2 october, sat
sat223:00+11wnw41188100 1.3 1017831
02:00+9w2490100 5.8 1018409
05:00+8s2392100 4.6 1017262
08:00+7s2296100 4.8 101735
11:00+11s2380100 0.0 1016549
14:00+13s3467100 0.0 10141054
17:00+12sse4480100 0.0 1012623
20:00+11se2596100 2.6 1010263